Year,Month,Day,Hour,Minute,Value (Times are PST for windspeed in km/hr)
2009,09,27,00,00,4.10
2009,09,27,00,01,1.50
2009,09,27,00,02,0.00
2009,09,27,00,03,4.10
2009,09,27,00,04,5.20
2009,09,27,00,05,2.10
2009,09,27,00,06,1.10
2009,09,27,00,07,1.50
2009,09,27,00,08,1.10
2009,09,27,00,09,1.20
2009,09,27,00,10,6.30
2009,09,27,00,11,2.60
2009,09,27,00,12,4.80
2009,09,27,00,13,3.30
2009,09,27,00,14,2.00
2009,09,27,00,15,4.40
2009,09,27,00,16,3.10
2009,09,27,00,17,4.40
2009,09,27,00,18,4.50
2009,09,27,00,19,4.90
2009,09,27,00,20,3.00
2009,09,27,00,21,3.50
2009,09,27,00,22,9.10
2009,09,27,00,23,9.20
2009,09,27,00,24,4.90
2009,09,27,00,25,1.50
2009,09,27,00,26,1.50
2009,09,27,00,27,3.60
2009,09,27,00,28,1.50
2009,09,27,00,29,4.10
2009,09,27,00,30,5.40
2009,09,27,00,31,4.70
2009,09,27,00,32,8.10
2009,09,27,00,33,1.50
2009,09,27,00,34,3.40
2009,09,27,00,35,8.60
2009,09,27,00,36,2.70
2009,09,27,00,37,4.10
2009,09,27,00,38,0.30
2009,09,27,00,39,1.00
2009,09,27,00,40,4.00
2009,09,27,00,41,4.90
2009,09,27,00,42,5.30
2009,09,27,00,43,2.30
2009,09,27,00,44,1.80
2009,09,27,00,45,3.20
2009,09,27,00,46,2.70
2009,09,27,00,47,4.20
2009,09,27,00,48,6.60
2009,09,27,00,49,6.60
2009,09,27,00,50,4.20
2009,09,27,00,51,8.40
2009,09,27,00,52,4.90
2009,09,27,00,53,3.70
2009,09,27,00,54,7.10
2009,09,27,00,55,1.90
2009,09,27,00,56,1.50
2009,09,27,00,57,5.20
2009,09,27,00,58,1.90
2009,09,27,00,59,5.00
2009,09,27,01,00,3.30
2009,09,27,01,01,3.20
2009,09,27,01,02,4.50
2009,09,27,01,03,5.10
2009,09,27,01,04,7.70
2009,09,27,01,05,0.40
2009,09,27,01,06,1.20
2009,09,27,01,07,3.20
2009,09,27,01,08,1.40
2009,09,27,01,09,1.20
2009,09,27,01,10,3.90
2009,09,27,01,11,1.00
2009,09,27,01,12,1.90
2009,09,27,01,13,1.40
2009,09,27,01,14,3.10
2009,09,27,01,15,4.80
2009,09,27,01,16,2.50
2009,09,27,01,17,0.70
2009,09,27,01,18,4.50
2009,09,27,01,19,1.40
2009,09,27,01,20,5.50
2009,09,27,01,21,4.70
2009,09,27,01,22,3.00
2009,09,27,01,23,5.40
2009,09,27,01,24,4.30
2009,09,27,01,25,5.20
2009,09,27,01,26,4.70
2009,09,27,01,27,2.70
2009,09,27,01,28,3.70
2009,09,27,01,29,2.10
2009,09,27,01,30,1.10
2009,09,27,01,31,0.20
2009,09,27,01,32,2.30
2009,09,27,01,33,1.90
2009,09,27,01,34,4.10
2009,09,27,01,35,2.30
2009,09,27,01,36,3.40
2009,09,27,01,37,2.90
2009,09,27,01,38,3.60
2009,09,27,01,39,2.50
2009,09,27,01,40,3.00
2009,09,27,01,41,1.50
2009,09,27,01,42,0.60
2009,09,27,01,43,0.90
2009,09,27,01,44,0.20
2009,09,27,01,45,0.90
2009,09,27,01,46,1.20
2009,09,27,01,47,0.50
2009,09,27,01,48,1.10
2009,09,27,01,49,2.10
2009,09,27,01,50,1.90
2009,09,27,01,51,2.90
2009,09,27,01,52,0.40
2009,09,27,01,53,0.30
2009,09,27,01,54,0.20
2009,09,27,01,55,0.80
2009,09,27,01,56,0.10
2009,09,27,01,57,0.10
2009,09,27,01,58,0.00
2009,09,27,01,59,0.20
2009,09,27,02,00,0.00
2009,09,27,02,01,0.10
2009,09,27,02,02,0.30
2009,09,27,02,03,0.90
2009,09,27,02,04,5.50
2009,09,27,02,05,1.60
2009,09,27,02,06,1.30
2009,09,27,02,07,1.00
2009,09,27,02,08,0.90
2009,09,27,02,09,1.40
2009,09,27,02,10,3.30
2009,09,27,02,11,1.80
2009,09,27,02,12,0.20
2009,09,27,02,13,0.60
2009,09,27,02,14,1.90
2009,09,27,02,15,1.00
2009,09,27,02,16,0.80
2009,09,27,02,17,2.30
2009,09,27,02,18,1.90
2009,09,27,02,19,2.00
2009,09,27,02,20,2.10
2009,09,27,02,21,4.60
2009,09,27,02,22,1.40
2009,09,27,02,23,5.60
2009,09,27,02,24,2.00
2009,09,27,02,25,2.90
2009,09,27,02,26,1.70
2009,09,27,02,27,1.40
2009,09,27,02,28,7.50
2009,09,27,02,29,2.70
2009,09,27,02,30,5.20
2009,09,27,02,31,2.80
2009,09,27,02,32,3.00
2009,09,27,02,33,1.40
2009,09,27,02,34,0.20
2009,09,27,02,35,1.00
2009,09,27,02,36,2.30
2009,09,27,02,37,4.10
2009,09,27,02,38,3.10
2009,09,27,02,39,1.90
2009,09,27,02,40,0.40
2009,09,27,02,41,0.40
2009,09,27,02,42,1.40
2009,09,27,02,43,3.80
2009,09,27,02,44,5.90
2009,09,27,02,45,1.70
2009,09,27,02,46,0.60
2009,09,27,02,47,3.70
2009,09,27,02,48,1.30
2009,09,27,02,49,3.20
2009,09,27,02,50,2.40
2009,09,27,02,51,1.70
2009,09,27,02,52,3.10
2009,09,27,02,53,1.70
2009,09,27,02,54,0.20
2009,09,27,02,55,2.90
2009,09,27,02,56,2.20
2009,09,27,02,57,0.40
2009,09,27,02,58,2.10
2009,09,27,02,59,1.60
2009,09,27,03,00,4.50
2009,09,27,03,01,4.80
2009,09,27,03,02,2.20
2009,09,27,03,03,2.00
2009,09,27,03,04,3.50
2009,09,27,03,05,3.10
2009,09,27,03,06,3.10
2009,09,27,03,07,1.40
2009,09,27,03,08,1.80
2009,09,27,03,09,1.40
2009,09,27,03,10,1.50
2009,09,27,03,11,0.30
2009,09,27,03,12,1.60
2009,09,27,03,13,0.80
2009,09,27,03,14,0.90
2009,09,27,03,15,2.10
2009,09,27,03,16,3.10
2009,09,27,03,17,1.40
2009,09,27,03,18,0.90
2009,09,27,03,19,1.00
2009,09,27,03,20,0.90
2009,09,27,03,21,0.50
2009,09,27,03,22,0.30
2009,09,27,03,23,0.50
2009,09,27,03,24,0.00
2009,09,27,03,25,0.00
2009,09,27,03,26,0.00
2009,09,27,03,27,0.70
2009,09,27,03,28,1.80
2009,09,27,03,29,0.20
2009,09,27,03,30,1.70
2009,09,27,03,31,1.20
2009,09,27,03,32,0.10
2009,09,27,03,33,2.20
2009,09,27,03,34,1.90
2009,09,27,03,35,1.60
2009,09,27,03,36,1.50
2009,09,27,03,37,0.30
2009,09,27,03,38,0.60
2009,09,27,03,39,0.00
2009,09,27,03,40,0.30
2009,09,27,03,41,0.20
2009,09,27,03,42,0.00
2009,09,27,03,43,0.00
2009,09,27,03,44,0.20
2009,09,27,03,45,0.20
2009,09,27,03,46,0.10
2009,09,27,03,47,0.10
2009,09,27,03,48,1.80
2009,09,27,03,49,1.80
2009,09,27,03,50,1.90
2009,09,27,03,51,1.80
2009,09,27,03,52,1.60
2009,09,27,03,53,0.10
2009,09,27,03,54,0.00
2009,09,27,03,55,0.00
2009,09,27,03,56,0.50
2009,09,27,03,57,1.40
2009,09,27,03,58,1.10
2009,09,27,03,59,1.20
2009,09,27,04,00,1.00
2009,09,27,04,01,0.00
2009,09,27,04,02,1.50
2009,09,27,04,03,4.00
2009,09,27,04,04,1.80
2009,09,27,04,05,0.80
2009,09,27,04,06,0.00
2009,09,27,04,07,3.00
2009,09,27,04,08,1.00
2009,09,27,04,09,0.40
2009,09,27,04,10,2.70
2009,09,27,04,11,1.10
2009,09,27,04,12,1.40
2009,09,27,04,13,2.10
2009,09,27,04,14,2.00
2009,09,27,04,15,1.10
2009,09,27,04,16,0.70
2009,09,27,04,17,0.60
2009,09,27,04,18,1.40
2009,09,27,04,19,1.30
2009,09,27,04,20,2.60
2009,09,27,04,21,1.50
2009,09,27,04,22,1.40
2009,09,27,04,23,1.80
2009,09,27,04,24,1.60
2009,09,27,04,25,0.30
2009,09,27,04,26,0.20
2009,09,27,04,27,1.90
2009,09,27,04,28,0.90
2009,09,27,04,29,1.80
2009,09,27,04,30,0.10
2009,09,27,04,31,0.30
2009,09,27,04,32,2.20
2009,09,27,04,33,2.30
2009,09,27,04,34,1.70
2009,09,27,04,35,3.90
2009,09,27,04,36,0.00
2009,09,27,04,37,1.90
2009,09,27,04,38,0.60
2009,09,27,04,39,3.90
2009,09,27,04,40,1.10
2009,09,27,04,41,1.60
2009,09,27,04,42,0.60
2009,09,27,04,43,2.00
2009,09,27,04,44,3.30
2009,09,27,04,45,1.00
2009,09,27,04,46,0.30
2009,09,27,04,47,0.10
2009,09,27,04,48,1.50
2009,09,27,04,49,2.30
2009,09,27,04,50,2.20
2009,09,27,04,51,1.00
2009,09,27,04,52,0.60
2009,09,27,04,53,2.30
2009,09,27,04,54,1.60
2009,09,27,04,55,2.50
2009,09,27,04,56,2.70
2009,09,27,04,57,2.70
2009,09,27,04,58,0.20
2009,09,27,04,59,1.70
2009,09,27,05,00,1.00
2009,09,27,05,01,1.40
2009,09,27,05,02,1.30
2009,09,27,05,03,1.00
2009,09,27,05,04,0.50
2009,09,27,05,05,0.20
2009,09,27,05,06,0.40
2009,09,27,05,07,0.30
2009,09,27,05,08,3.40
2009,09,27,05,09,4.50
2009,09,27,05,10,2.20
2009,09,27,05,11,0.10
2009,09,27,05,12,0.30
2009,09,27,05,13,0.70
2009,09,27,05,14,3.50
2009,09,27,05,15,1.80
2009,09,27,05,16,0.40
2009,09,27,05,17,0.90
2009,09,27,05,18,2.50
2009,09,27,05,19,0.70
2009,09,27,05,20,0.10
2009,09,27,05,21,1.80
2009,09,27,05,22,1.90
2009,09,27,05,23,0.20
2009,09,27,05,24,0.00
2009,09,27,05,25,0.40
2009,09,27,05,26,0.10
2009,09,27,05,27,2.40
2009,09,27,05,28,1.60
2009,09,27,05,29,3.20
2009,09,27,05,30,0.50
2009,09,27,05,31,1.60
2009,09,27,05,32,3.50
2009,09,27,05,33,0.20
2009,09,27,05,34,0.50
2009,09,27,05,35,1.70
2009,09,27,05,36,3.00
2009,09,27,05,37,3.30
2009,09,27,05,38,3.90
2009,09,27,05,39,3.70
2009,09,27,05,40,0.10
2009,09,27,05,41,2.90
2009,09,27,05,42,2.20
2009,09,27,05,43,1.90
2009,09,27,05,44,1.90
2009,09,27,05,45,0.20
2009,09,27,05,46,1.60
2009,09,27,05,47,4.30
2009,09,27,05,48,1.00
2009,09,27,05,49,3.60
2009,09,27,05,50,3.00
2009,09,27,05,51,0.70
2009,09,27,05,52,1.30
2009,09,27,05,53,0.30
2009,09,27,05,54,3.70
2009,09,27,05,55,3.10
2009,09,27,05,56,3.50
2009,09,27,05,57,0.00
2009,09,27,05,58,2.60
2009,09,27,05,59,2.60
2009,09,27,06,00,1.70
2009,09,27,06,01,4.20
2009,09,27,06,02,1.80
2009,09,27,06,03,2.90
2009,09,27,06,04,3.10
2009,09,27,06,05,3.50
2009,09,27,06,06,1.50
2009,09,27,06,07,0.80
2009,09,27,06,08,4.80
2009,09,27,06,09,6.30
2009,09,27,06,10,2.30
2009,09,27,06,11,0.20
2009,09,27,06,12,3.70
2009,09,27,06,13,3.90
2009,09,27,06,14,0.90
2009,09,27,06,15,0.50
2009,09,27,06,16,1.80
2009,09,27,06,17,2.00
2009,09,27,06,18,3.90
2009,09,27,06,19,1.40
2009,09,27,06,20,1.10
2009,09,27,06,21,1.00
2009,09,27,06,22,4.40
2009,09,27,06,23,1.60
2009,09,27,06,24,3.70
2009,09,27,06,25,1.40
2009,09,27,06,26,0.20
2009,09,27,06,27,2.30
2009,09,27,06,28,1.50
2009,09,27,06,29,0.30
2009,09,27,06,30,0.60
2009,09,27,06,31,0.40
2009,09,27,06,32,0.70
2009,09,27,06,33,1.50
2009,09,27,06,34,0.20
2009,09,27,06,35,1.40
2009,09,27,06,36,0.00
2009,09,27,06,37,2.00
2009,09,27,06,38,2.80
2009,09,27,06,39,0.30
2009,09,27,06,40,0.80
2009,09,27,06,41,0.00
2009,09,27,06,42,3.80
2009,09,27,06,43,3.10
2009,09,27,06,44,0.50
2009,09,27,06,45,0.10
2009,09,27,06,46,1.50
2009,09,27,06,47,1.60
2009,09,27,06,48,0.10
2009,09,27,06,49,0.00
2009,09,27,06,50,0.60
2009,09,27,06,51,0.10
2009,09,27,06,52,0.60
2009,09,27,06,53,1.80
2009,09,27,06,54,0.60
2009,09,27,06,55,2.20
2009,09,27,06,56,1.90
2009,09,27,06,57,0.10
2009,09,27,06,58,0.90
2009,09,27,06,59,1.50
2009,09,27,07,00,0.90
2009,09,27,07,01,1.80
2009,09,27,07,02,4.50
2009,09,27,07,03,0.30
2009,09,27,07,04,1.40
2009,09,27,07,05,1.80
2009,09,27,07,06,2.00
2009,09,27,07,07,4.40
2009,09,27,07,08,4.90
2009,09,27,07,09,3.30
2009,09,27,07,10,1.90
2009,09,27,07,11,0.20
2009,09,27,07,12,1.30
2009,09,27,07,13,3.50
2009,09,27,07,14,1.80
2009,09,27,07,15,0.30
2009,09,27,07,16,0.50
2009,09,27,07,17,1.80
2009,09,27,07,18,1.50
2009,09,27,07,19,4.30
2009,09,27,07,20,0.60
2009,09,27,07,21,0.00
2009,09,27,07,22,5.00
2009,09,27,07,23,2.70
2009,09,27,07,24,0.90
2009,09,27,07,25,1.10
2009,09,27,07,26,1.10
2009,09,27,07,27,2.50
2009,09,27,07,28,2.30
2009,09,27,07,29,1.50
2009,09,27,07,30,1.40
2009,09,27,07,31,0.30
2009,09,27,07,32,1.50
2009,09,27,07,33,1.70
2009,09,27,07,34,2.20
2009,09,27,07,35,1.00
2009,09,27,07,36,3.10
2009,09,27,07,37,1.90
2009,09,27,07,38,1.80
2009,09,27,07,39,4.90
2009,09,27,07,40,3.80
2009,09,27,07,41,1.90
2009,09,27,07,42,3.10
2009,09,27,07,43,3.90
2009,09,27,07,44,2.00
2009,09,27,07,45,1.30
2009,09,27,07,46,2.30
2009,09,27,07,47,4.30
2009,09,27,07,48,0.60
2009,09,27,07,49,4.70
2009,09,27,07,50,1.30
2009,09,27,07,51,3.10
2009,09,27,07,52,1.40
2009,09,27,07,53,1.90
2009,09,27,07,54,3.20
2009,09,27,07,55,2.10
2009,09,27,07,56,2.50
2009,09,27,07,57,3.90
2009,09,27,07,58,3.30
2009,09,27,07,59,3.30
2009,09,27,08,00,3.80
2009,09,27,08,01,1.90
2009,09,27,08,02,1.80
2009,09,27,08,03,1.10
2009,09,27,08,04,2.30
2009,09,27,08,05,1.20
2009,09,27,08,06,2.50
2009,09,27,08,07,2.20
2009,09,27,08,08,3.70
2009,09,27,08,09,2.60
2009,09,27,08,10,2.20
2009,09,27,08,11,0.40
2009,09,27,08,12,4.20
2009,09,27,08,13,0.20
2009,09,27,08,14,0.90
2009,09,27,08,15,1.70
2009,09,27,08,16,0.60
2009,09,27,08,17,3.00
2009,09,27,08,18,4.70
2009,09,27,08,19,2.70
2009,09,27,08,20,3.10
2009,09,27,08,21,2.10
2009,09,27,08,22,2.10
2009,09,27,08,23,1.70
2009,09,27,08,24,5.60
2009,09,27,08,25,5.20
2009,09,27,08,26,3.40
2009,09,27,08,27,3.10
2009,09,27,08,28,3.60
2009,09,27,08,29,2.30
2009,09,27,08,30,7.00
2009,09,27,08,31,6.30
2009,09,27,08,32,5.50
2009,09,27,08,33,6.10
2009,09,27,08,34,7.00
2009,09,27,08,35,4.10
2009,09,27,08,36,1.90
2009,09,27,08,37,0.80
2009,09,27,08,38,3.70
2009,09,27,08,39,3.00
2009,09,27,08,40,2.40
2009,09,27,08,41,7.70
2009,09,27,08,42,6.10
2009,09,27,08,43,3.90
2009,09,27,08,44,4.30
2009,09,27,08,45,13.40
2009,09,27,08,46,5.50
2009,09,27,08,47,4.50
2009,09,27,08,48,3.50
2009,09,27,08,49,8.00
2009,09,27,08,50,5.40
2009,09,27,08,51,7.50
2009,09,27,08,52,7.20
2009,09,27,08,53,2.00
2009,09,27,08,54,1.30
2009,09,27,08,55,1.10
2009,09,27,08,56,1.60
2009,09,27,08,57,1.40
2009,09,27,08,58,2.80
2009,09,27,08,59,7.20
2009,09,27,09,00,3.40
2009,09,27,09,01,2.50
2009,09,27,09,02,1.80
2009,09,27,09,03,3.10
2009,09,27,09,04,6.00
2009,09,27,09,05,9.30
2009,09,27,09,06,4.30
2009,09,27,09,07,5.70
2009,09,27,09,08,9.60
2009,09,27,09,09,5.00
2009,09,27,09,10,5.70
2009,09,27,09,11,2.40
2009,09,27,09,12,2.70
2009,09,27,09,13,2.40
2009,09,27,09,14,0.20
2009,09,27,09,15,0.20
2009,09,27,09,16,2.00
2009,09,27,09,17,2.50
2009,09,27,09,18,6.20
2009,09,27,09,19,4.50
2009,09,27,09,20,5.10
2009,09,27,09,21,5.00
2009,09,27,09,22,5.00
2009,09,27,09,23,3.40
2009,09,27,09,24,2.90
2009,09,27,09,25,2.50
2009,09,27,09,26,5.10
2009,09,27,09,27,9.70
2009,09,27,09,28,8.50
2009,09,27,09,29,2.30
2009,09,27,09,30,4.00
2009,09,27,09,31,6.80
2009,09,27,09,32,2.50
2009,09,27,09,33,3.90
2009,09,27,09,34,3.10
2009,09,27,09,35,5.10
2009,09,27,09,36,5.30
2009,09,27,09,37,6.50
2009,09,27,09,38,5.30
2009,09,27,09,39,3.60
2009,09,27,09,40,3.30
2009,09,27,09,41,6.00
2009,09,27,09,42,5.70
2009,09,27,09,43,9.50
2009,09,27,09,44,5.90
2009,09,27,09,45,8.00
2009,09,27,09,46,3.30
2009,09,27,09,47,4.50
2009,09,27,09,48,3.90
2009,09,27,09,49,3.10
2009,09,27,09,50,3.10
2009,09,27,09,51,6.10
2009,09,27,09,52,5.60
2009,09,27,09,53,6.80
2009,09,27,09,54,9.20
2009,09,27,09,55,6.90
2009,09,27,09,56,4.00
2009,09,27,09,57,3.20
2009,09,27,09,58,2.80
2009,09,27,09,59,3.90
2009,09,27,10,00,9.10
2009,09,27,10,01,13.20
2009,09,27,10,02,5.60
2009,09,27,10,03,5.50
2009,09,27,10,04,4.80
2009,09,27,10,05,1.90
2009,09,27,10,06,7.30
2009,09,27,10,07,3.90
2009,09,27,10,08,2.40
2009,09,27,10,09,5.90
2009,09,27,10,10,4.40
2009,09,27,10,11,4.70
2009,09,27,10,12,5.30
2009,09,27,10,13,6.00
2009,09,27,10,14,3.50
2009,09,27,10,15,1.10
2009,09,27,10,16,9.60
2009,09,27,10,17,7.30
2009,09,27,10,18,7.40
2009,09,27,10,19,6.10
2009,09,27,10,20,5.90
2009,09,27,10,21,5.50
2009,09,27,10,22,16.00
2009,09,27,10,23,7.70
2009,09,27,10,24,9.60
2009,09,27,10,25,6.90
2009,09,27,10,26,6.00
2009,09,27,10,27,4.90
2009,09,27,10,28,8.70
2009,09,27,10,29,8.00
2009,09,27,10,30,6.20
2009,09,27,10,31,11.10
2009,09,27,10,32,10.80
2009,09,27,10,33,8.90
2009,09,27,10,34,10.70
2009,09,27,10,35,8.30
2009,09,27,10,36,6.60
2009,09,27,10,37,6.40
2009,09,27,10,38,6.40
2009,09,27,10,39,8.50
2009,09,27,10,40,6.40
2009,09,27,10,41,3.90
2009,09,27,10,42,6.40
2009,09,27,10,43,2.70
2009,09,27,10,44,2.30
2009,09,27,10,45,9.90
2009,09,27,10,46,11.60
2009,09,27,10,47,8.90
2009,09,27,10,48,11.40
2009,09,27,10,49,8.50
2009,09,27,10,50,11.30
2009,09,27,10,51,6.80
2009,09,27,10,52,7.50
2009,09,27,10,53,5.60
2009,09,27,10,54,8.80
2009,09,27,10,55,8.80
2009,09,27,10,56,4.10
2009,09,27,10,57,9.00
2009,09,27,10,58,9.70
2009,09,27,10,59,5.60
2009,09,27,11,00,8.90
2009,09,27,11,01,11.40
2009,09,27,11,02,4.20
2009,09,27,11,03,4.90
2009,09,27,11,04,5.50
2009,09,27,11,05,7.70
2009,09,27,11,06,8.20
2009,09,27,11,07,4.90
2009,09,27,11,08,1.70
2009,09,27,11,09,5.50
2009,09,27,11,10,5.90
2009,09,27,11,11,2.80
2009,09,27,11,12,8.00
2009,09,27,11,13,7.80
2009,09,27,11,14,6.20
2009,09,27,11,15,3.20
2009,09,27,11,16,4.10
2009,09,27,11,17,4.90
2009,09,27,11,18,3.70
2009,09,27,11,19,12.00
2009,09,27,11,20,10.40
2009,09,27,11,21,5.60
2009,09,27,11,22,7.90
2009,09,27,11,23,5.80
2009,09,27,11,24,3.40
2009,09,27,11,25,8.40
2009,09,27,11,26,5.70
2009,09,27,11,27,6.20
2009,09,27,11,28,9.30
2009,09,27,11,29,8.30
2009,09,27,11,30,8.10
2009,09,27,11,31,6.70
2009,09,27,11,32,6.90
2009,09,27,11,33,5.00
2009,09,27,11,34,7.40
2009,09,27,11,35,5.20
2009,09,27,11,36,6.20
2009,09,27,11,37,5.10
2009,09,27,11,38,8.50
2009,09,27,11,39,6.90
2009,09,27,11,40,9.30
2009,09,27,11,41,8.40
2009,09,27,11,42,8.80
2009,09,27,11,43,12.00
2009,09,27,11,44,6.90
2009,09,27,11,45,10.70
2009,09,27,11,46,5.90
2009,09,27,11,47,4.50
2009,09,27,11,48,1.90
2009,09,27,11,49,7.00
2009,09,27,11,50,8.40
2009,09,27,11,51,8.90
2009,09,27,11,52,9.20
2009,09,27,11,53,8.80
2009,09,27,11,54,7.30
2009,09,27,11,55,7.20
2009,09,27,11,56,4.70
2009,09,27,11,57,8.10
2009,09,27,11,58,11.40
2009,09,27,11,59,8.90
2009,09,27,12,00,7.60
2009,09,27,12,01,6.60
2009,09,27,12,02,6.80
2009,09,27,12,03,7.50
2009,09,27,12,04,12.30
2009,09,27,12,05,8.00
2009,09,27,12,06,4.00
2009,09,27,12,07,12.60
2009,09,27,12,08,10.30
2009,09,27,12,09,9.00
2009,09,27,12,10,9.40
2009,09,27,12,11,11.60
2009,09,27,12,12,11.30
2009,09,27,12,13,11.80
2009,09,27,12,14,11.30
2009,09,27,12,15,6.40
2009,09,27,12,16,11.10
2009,09,27,12,17,8.20
2009,09,27,12,18,5.40
2009,09,27,12,19,6.10
2009,09,27,12,20,9.80
2009,09,27,12,21,9.30
2009,09,27,12,22,6.50
2009,09,27,12,23,4.40
2009,09,27,12,24,9.30
2009,09,27,12,25,11.20
2009,09,27,12,26,6.40
2009,09,27,12,27,6.90
2009,09,27,12,28,7.90
2009,09,27,12,29,7.40
2009,09,27,12,30,6.50
2009,09,27,12,31,6.20
2009,09,27,12,32,13.00
2009,09,27,12,33,8.50
2009,09,27,12,34,8.70
2009,09,27,12,35,9.90
2009,09,27,12,36,8.70
2009,09,27,12,37,6.30
2009,09,27,12,38,5.30
2009,09,27,12,39,4.00
2009,09,27,12,40,8.20
2009,09,27,12,41,11.70
2009,09,27,12,42,6.40
2009,09,27,12,43,10.50
2009,09,27,12,44,9.20
2009,09,27,12,45,9.30
2009,09,27,12,46,10.30
2009,09,27,12,47,10.50
2009,09,27,12,48,5.00
2009,09,27,12,49,11.90
2009,09,27,12,50,11.80
2009,09,27,12,51,11.00
2009,09,27,12,52,10.80
2009,09,27,12,53,5.80
2009,09,27,12,54,2.70
2009,09,27,12,55,7.00
2009,09,27,12,56,12.50
2009,09,27,12,57,9.80
2009,09,27,12,58,8.90
2009,09,27,12,59,5.60
2009,09,27,13,00,10.50
2009,09,27,13,01,5.70
2009,09,27,13,02,6.90
2009,09,27,13,03,11.90
2009,09,27,13,04,9.50
2009,09,27,13,05,15.20
2009,09,27,13,06,13.00
2009,09,27,13,07,10.00
2009,09,27,13,08,10.80
2009,09,27,13,09,6.40
2009,09,27,13,10,13.00
2009,09,27,13,11,12.60
2009,09,27,13,12,10.40
2009,09,27,13,13,15.30
2009,09,27,13,14,12.30
2009,09,27,13,15,7.30
2009,09,27,13,16,7.70
2009,09,27,13,17,13.10
2009,09,27,13,18,8.20
2009,09,27,13,19,6.10
2009,09,27,13,20,9.80
2009,09,27,13,21,7.80
2009,09,27,13,22,12.00
2009,09,27,13,23,6.90
2009,09,27,13,24,7.60
2009,09,27,13,25,8.40
2009,09,27,13,26,5.30
2009,09,27,13,27,8.20
2009,09,27,13,28,6.30
2009,09,27,13,29,5.70
2009,09,27,13,30,9.90
2009,09,27,13,31,10.90
2009,09,27,13,32,10.80
2009,09,27,13,33,7.00
2009,09,27,13,34,8.00
2009,09,27,13,35,10.80
2009,09,27,13,36,9.90
2009,09,27,13,37,7.00
2009,09,27,13,38,10.50
2009,09,27,13,39,8.90
2009,09,27,13,40,8.30
2009,09,27,13,41,6.10
2009,09,27,13,42,7.40
2009,09,27,13,43,8.80
2009,09,27,13,44,9.10
2009,09,27,13,45,12.00
2009,09,27,13,46,8.00
2009,09,27,13,47,6.40
2009,09,27,13,48,9.10
2009,09,27,13,49,7.50
2009,09,27,13,50,12.00
2009,09,27,13,51,8.50
2009,09,27,13,52,7.60
2009,09,27,13,53,6.40
2009,09,27,13,54,2.00
2009,09,27,13,55,8.20
2009,09,27,13,56,5.60
2009,09,27,13,57,7.20
2009,09,27,13,58,7.80
2009,09,27,13,59,6.90
2009,09,27,14,00,4.70
2009,09,27,14,01,7.40
2009,09,27,14,02,10.50
2009,09,27,14,03,5.60
2009,09,27,14,04,9.30
2009,09,27,14,05,11.60
2009,09,27,14,06,7.20
2009,09,27,14,07,8.10
2009,09,27,14,08,9.90
2009,09,27,14,09,7.50
2009,09,27,14,10,9.70
2009,09,27,14,11,8.20
2009,09,27,14,12,11.20
2009,09,27,14,13,8.50
2009,09,27,14,14,6.40
2009,09,27,14,15,7.60
2009,09,27,14,16,9.80
2009,09,27,14,17,5.50
2009,09,27,14,18,6.60
2009,09,27,14,19,6.60
2009,09,27,14,20,6.50
2009,09,27,14,21,6.00
2009,09,27,14,22,9.90
2009,09,27,14,23,9.80
2009,09,27,14,24,7.30
2009,09,27,14,25,5.30
2009,09,27,14,26,6.80
2009,09,27,14,27,7.70
2009,09,27,14,28,7.20
2009,09,27,14,29,10.30
2009,09,27,14,30,6.40
2009,09,27,14,31,4.00
2009,09,27,14,32,8.50
2009,09,27,14,33,8.60
2009,09,27,14,34,6.90
2009,09,27,14,35,7.10
2009,09,27,14,36,8.90
2009,09,27,14,37,8.70
2009,09,27,14,38,7.70
2009,09,27,14,39,6.90
2009,09,27,14,40,7.40
2009,09,27,14,41,5.70
2009,09,27,14,42,10.10
2009,09,27,14,43,8.40
2009,09,27,14,44,6.00
2009,09,27,14,45,8.10
2009,09,27,14,46,4.90
2009,09,27,14,47,8.40
2009,09,27,14,48,8.00
2009,09,27,14,49,9.30
2009,09,27,14,50,5.70
2009,09,27,14,51,9.00
2009,09,27,14,52,4.80
2009,09,27,14,53,5.00
2009,09,27,14,54,2.30
2009,09,27,14,55,9.80
2009,09,27,14,56,9.30
2009,09,27,14,57,7.60
2009,09,27,14,58,7.20
2009,09,27,14,59,6.00
2009,09,27,15,00,5.20
2009,09,27,15,01,6.10
2009,09,27,15,02,11.00
2009,09,27,15,03,5.60
2009,09,27,15,04,7.80
2009,09,27,15,05,8.10
2009,09,27,15,06,7.20
2009,09,27,15,07,9.90
2009,09,27,15,08,6.00
2009,09,27,15,09,7.00
2009,09,27,15,10,4.10
2009,09,27,15,11,8.30
2009,09,27,15,12,9.30
2009,09,27,15,13,11.50
2009,09,27,15,14,4.50
2009,09,27,15,15,8.10
2009,09,27,15,16,4.40
2009,09,27,15,17,4.00
2009,09,27,15,18,4.30
2009,09,27,15,19,6.40
2009,09,27,15,20,8.10
2009,09,27,15,21,8.90
2009,09,27,15,22,8.70
2009,09,27,15,23,10.00
2009,09,27,15,24,8.00
2009,09,27,15,25,5.90
2009,09,27,15,26,6.80
2009,09,27,15,27,8.90
2009,09,27,15,28,6.40
2009,09,27,15,29,5.30
2009,09,27,15,30,6.00
2009,09,27,15,31,6.90
2009,09,27,15,32,8.40
2009,09,27,15,33,6.80
2009,09,27,15,34,7.20
2009,09,27,15,35,5.10
2009,09,27,15,36,3.90
2009,09,27,15,37,4.00
2009,09,27,15,38,4.20
2009,09,27,15,39,3.90
2009,09,27,15,40,6.80
2009,09,27,15,41,10.10
2009,09,27,15,42,5.60
2009,09,27,15,43,7.30
2009,09,27,15,44,7.60
2009,09,27,15,45,8.50
2009,09,27,15,46,8.70
2009,09,27,15,47,7.90
2009,09,27,15,48,10.20
2009,09,27,15,49,6.70
2009,09,27,15,50,7.10
2009,09,27,15,51,10.30
2009,09,27,15,52,7.80
2009,09,27,15,53,7.30
2009,09,27,15,54,7.40
2009,09,27,15,55,5.20
2009,09,27,15,56,4.00
2009,09,27,15,57,5.50
2009,09,27,15,58,10.30
2009,09,27,15,59,8.90
2009,09,27,16,00,8.50
2009,09,27,16,01,4.20
2009,09,27,16,02,4.80
2009,09,27,16,03,6.20
2009,09,27,16,04,6.80
2009,09,27,16,05,6.80
2009,09,27,16,06,4.80
2009,09,27,16,07,5.90
2009,09,27,16,08,5.00
2009,09,27,16,09,7.80
2009,09,27,16,10,8.10
2009,09,27,16,11,7.40
2009,09,27,16,12,6.80
2009,09,27,16,13,4.00
2009,09,27,16,14,6.10
2009,09,27,16,15,9.70
2009,09,27,16,16,6.80
2009,09,27,16,17,4.90
2009,09,27,16,18,4.00
2009,09,27,16,19,4.80
2009,09,27,16,20,1.80
2009,09,27,16,21,5.50
2009,09,27,16,22,6.00
2009,09,27,16,23,6.00
2009,09,27,16,24,7.40
2009,09,27,16,25,7.30
2009,09,27,16,26,9.40
2009,09,27,16,27,8.00
2009,09,27,16,28,8.10
2009,09,27,16,29,6.50
2009,09,27,16,30,6.40
2009,09,27,16,31,6.50
2009,09,27,16,32,5.60
2009,09,27,16,33,8.50
2009,09,27,16,34,7.20
2009,09,27,16,35,7.20
2009,09,27,16,36,8.40
2009,09,27,16,37,8.30
2009,09,27,16,38,6.90
2009,09,27,16,39,5.70
2009,09,27,16,40,3.00
2009,09,27,16,41,6.20
2009,09,27,16,42,8.90
2009,09,27,16,43,6.50
2009,09,27,16,44,8.10
2009,09,27,16,45,6.40
2009,09,27,16,46,5.30
2009,09,27,16,47,6.40
2009,09,27,16,48,8.20
2009,09,27,16,49,6.70
2009,09,27,16,50,7.50
2009,09,27,16,51,7.50
2009,09,27,16,52,6.60
2009,09,27,16,53,6.20
2009,09,27,16,54,3.40
2009,09,27,16,55,6.80
2009,09,27,16,56,4.80
2009,09,27,16,57,4.10
2009,09,27,16,58,5.60
2009,09,27,16,59,8.90
2009,09,27,17,00,4.00
2009,09,27,17,01,1.90
2009,09,27,17,02,4.20
2009,09,27,17,03,5.30
2009,09,27,17,04,7.00
2009,09,27,17,05,5.70
2009,09,27,17,06,5.60
2009,09,27,17,07,5.20
2009,09,27,17,08,4.90
2009,09,27,17,09,3.30
2009,09,27,17,10,2.10
2009,09,27,17,11,6.30
2009,09,27,17,12,4.20
2009,09,27,17,13,4.20
2009,09,27,17,14,6.00
2009,09,27,17,15,5.50
2009,09,27,17,16,5.10
2009,09,27,17,17,4.70
2009,09,27,17,18,4.20
2009,09,27,17,19,6.10
2009,09,27,17,20,7.30
2009,09,27,17,21,5.40
2009,09,27,17,22,3.20
2009,09,27,17,23,3.90
2009,09,27,17,24,6.10
2009,09,27,17,25,6.00
2009,09,27,17,26,7.40
2009,09,27,17,27,5.50
2009,09,27,17,28,6.80
2009,09,27,17,29,6.50
2009,09,27,17,30,4.00
2009,09,27,17,31,3.90
2009,09,27,17,32,6.90
2009,09,27,17,33,6.00
2009,09,27,17,34,4.70
2009,09,27,17,35,8.10
2009,09,27,17,36,5.90
2009,09,27,17,37,5.80
2009,09,27,17,38,5.60
2009,09,27,17,39,3.50
2009,09,27,17,40,4.70
2009,09,27,17,41,3.90
2009,09,27,17,42,4.40
2009,09,27,17,43,4.60
2009,09,27,17,44,6.30
2009,09,27,17,45,5.90
2009,09,27,17,46,5.00
2009,09,27,17,47,4.10
2009,09,27,17,48,6.40
2009,09,27,17,49,2.90
2009,09,27,17,50,4.10
2009,09,27,17,51,4.00
2009,09,27,17,52,3.70
2009,09,27,17,53,6.20
2009,09,27,17,54,6.40
2009,09,27,17,55,4.90
2009,09,27,17,56,3.40
2009,09,27,17,57,5.50
2009,09,27,17,58,5.50
2009,09,27,17,59,4.80
2009,09,27,18,00,4.80
2009,09,27,18,01,4.10
2009,09,27,18,02,4.70
2009,09,27,18,03,4.70